125  
ASUS43 KLSX 251510  
RWRMO  
 
WEATHER SUMMARY FOR MISSOURI  
NATIONAL WEATHER SERVICE SPRINGFIELD MO  
1000 AM CDT SAT MAR 25 2017  
 
NOTE: "FAIR" INDICATES FEW OR NO CLOUDS BELOW 12,000 FEET WITH NO  
SIGNIFICANT WEATHER AND/OR S TO VISIBILITY
.  
CURRENT SKY AND/OR WEATHER CONDITIONS ARE NOT AVAILABLE FOR  
CHILLICOTHE AND FARMINGTON.  
 
MOZ001>031-035>038-043-044-053-054-251600-   
..NORTHERN AND WESTERN MISSOURI
 
 
 
CITY SKY/WX TMP DP RH WIND PRES REMARKS
 
KANSAS CTY INT DRIZZLE 51 51 100 N12 29.83R FOG  
KANSAS C DTWN CLOUDY 57 53 86 NE8 29.81S  
LEE'S SUMMIT LGT RAIN 53 51 93 NE6 29.82R  
ST JOSEPH LGT RAIN 48 47 96 N17G24 29.87R  
CHILLICOTHE N/A 53 52 96 N10G20 29.86R  
KIRKSVILLE CLOUDY 51 51 100 NE10 29.85R FOG  
 

 
MOZ066>068-077>081-088>096-101>105-251600-   
..SOUTHWEST MISSOURI
 
 
 
CITY SKY/WX TMP DP RH WIND PRES REMARKS
 
SPRINGFIELD LGT RAIN 54 51 90 SW5 29.79S  
JOPLIN CLOUDY 50 49 96 NW13 29.84R  
BRANSON PTSUNNY 54 54 100 W3 29.80S FOG  
 

 
MOZ032>034-039>042-045>050-055>058-069>072-251600-   
..CENTRAL MISSOURI
 
 
 
CITY SKY/WX TMP DP RH WIND PRES REMARKS
 
COLUMBIA CLOUDY 56 53 90 SE5 29.83S  
JEFFERSON CITY CLOUDY 58 52 80 E9 29.83R  
ROLLA CLOUDY 56 53 90 S13 29.83R  
SEDALIA PTSUNNY 58 52 80 CALM 29.83S  
WHITEMAN AFB PTSUNNY 55 55 100 NE3 29.79F  
WARRENSBURG LGT RAIN 54 50 87 NW6 29.81F  
OSAGE BEACH CLOUDY N/A N/A N/A S10 29.83R  
 

 
MOZ051-052-059>065-251600-   
..EAST CENTRAL MISSOURI
 
 
 
CITY SKY/WX TMP DP RH WIND PRES REMARKS
 
ST LOUIS INTL CLOUDY 60 54 80 SE17G26 29.88R  
SPIRIT OF STL CLOUDY 59 54 83 S10G23 29.87R  
ST CHARLES CLOUDY 58 55 90 SE12 29.88R  
 

 
MOZ072>076-082>087-097>100-106>115-251600-   
..SOUTH CENTRAL AND SOUTHEAST MISSOURI
 
 
 
CITY SKY/WX TMP DP RH WIND PRES REMARKS
 
CAPE GIRARDEAU PTSUNNY 59 55 87 S12 29.92R  
FARMINGTON CLOUDY 56 54 93 S15G23 29.89R  
POPLAR BLUFF LGT RAIN 58 57 97 SE12 29.90F  
WEST PLAINS CLOUDY 56 54 93 SE10G21 29.84S  
 

 
 
 
CLICK HERE TO GO TO PREVIOUS BULLETINS.

The Nexlab MO Page Main Text Page